Home > Weather > Asheville > Past weeks

Flag for USA Past Weather in Asheville, North Carolina, USA — Yesterday and Last 2 Weeks

Now
65 °F

Passing clouds.


Feels Like: 65 °F
Forecast: 64 / 80 °F
Wind: No wind

Location: Asheville Regional Airport

Current Time: Aug 24, 2016 at 4:42:49 AM

Latest Report: Aug 24, 2016 at 3:54 AM


Visibility: 10 mi

Pressure: 30.25 "Hg (28.04 "Hg at 647m altitude)

Humidity: 91%

Dew Point: 62 °F

Location of AshevilleLocation

Past Weather in Asheville — Graph

°F

Asheville Temperature Yesterday

Maximum temperature yesterday: 80 °F (at 3:54 PM)
Minimum temperature yesterday: 63 °F (at 2:54 AM)
Average temperature yesterday: 71 °F

High & Low Weather Summary for the Past Weeks

 TemperatureHumidityPressure
High88 °F (Aug 14, 2:54 PM)97% (Aug 15, 7:03 AM)30.31 "Hg (Aug 15, 7:03 AM)
Low63 °F (Aug 23, 2:54 AM)45% (Aug 14, 2:54 PM)29.86 "Hg (Aug 21, 2:54 AM)
Average74 °F78%30.10 "Hg
* Reported Aug 9 2:54 AM — Aug 24 2:54 AM, Asheville, Weather by CustomWeather, © 2016

Note: Actual official high and low records may vary slightly from our data, if they occured in-between our weather recording intervals... More about our weather records

Advertising

Asheville Weather History for the Previous 24 Hours

Scroll right to see more
 ConditionsComfort  
Time TempWeatherWind HumidityBarometerVisibility
2:54 AM
Wed, Aug 24
65 °FPassing clouds.No wind91%30.26 "Hg10 mi
1:54 AM66 °FPassing clouds.No wind90%30.27 "Hg10 mi
12:54 AM67 °FClear.3 mph90%30.27 "Hg10 mi
11:54 PM
Tue, Aug 23
68 °FClear.No wind90%30.28 "Hg10 mi
10:54 PM69 °FClear.No wind87%30.28 "Hg10 mi
9:54 PM70 °FClear.No wind81%30.27 "Hg10 mi
8:54 PM74 °FBroken clouds.No wind67%30.26 "Hg10 mi
7:54 PM76 °FPartly sunny.3 mph62%30.25 "Hg10 mi
6:54 PM77 °FSunny.6 mph58%30.24 "Hg10 mi
5:54 PM78 °FSunny.8 mph56%30.24 "Hg10 mi
4:54 PM79 °FPassing clouds.9 mph56%30.24 "Hg10 mi
3:54 PM80 °FScattered clouds.8 mph52%30.24 "Hg10 mi
2:54 PM79 °FPassing clouds.8 mph52%30.27 "Hg10 mi
1:54 PM79 °FPassing clouds.10 mph50%30.29 "Hg10 mi
12:54 PM78 °FPassing clouds.8 mph54%30.30 "Hg10 mi
11:54 AM76 °FPartly sunny.9 mph54%30.31 "Hg10 mi
10:54 AM73 °FMostly cloudy.7 mph64%30.31 "Hg10 mi
9:54 AM71 °FMostly cloudy.No wind71%30.30 "Hg10 mi
8:54 AM67 °FScattered clouds.No wind81%30.29 "Hg10 mi
7:54 AM63 °FPassing clouds.No wind93%30.29 "Hg10 mi
6:54 AM63 °FPassing clouds.3 mph90%30.27 "Hg10 mi
5:54 AM63 °FPassing clouds.No wind90%30.25 "Hg10 mi
4:54 AM63 °FPassing clouds.No wind87%30.23 "Hg10 mi
Weather by CustomWeather, © 2016

See weather overviewHow to use our weather pages